[[{"header":{"parameterUnit":"m.s-1","parameterCategory":1,"la1":30.2991,"la2":30.254,"lo1":-89.0895,"lo2":-89.0444,"dy":0.0017,"dx":0.0017,"nx":28,"ny":28,"refTime":"2023-10-08T03:00:00:Z","depth":0,"parameterNumber":2,"parameterNumberName":"U-component_of_WINDS"},"data":[0,0,0,0,0,0,0,0,0,0,0,0,0,0,0,0,0,0,0,0,0,0,0,0,0,0,0,0,0,0,0,0,0,0,0,0,0,0,0,0,0,0,0,0,0,0,0,0,0,0,0,0,0,0,0,0,0,0,-1.637,-1.6371,0,-1.6453,-1.6454,-1.6454,-1.638,-1.6376,-1.6373,-1.6371,-1.6456,-1.646,-1.6466,0,0,0,0,0,0,0,0,0,0,0,0,0,-1.6149,-1.6153,-1.637,-1.6371,-1.6372,-1.6452,-1.6454,-1.6455,-1.638,-1.6376,-1.6373,-1.6369,-1.6454,-1.646,-1.6466,0,0,0,0,0,0,0,0,0,0,0,0,0,-1.6239,-1.6155,-1.637,-1.6345,-1.6343,-1.6452,-1.6454,-1.6455,-1.6381,-1.6376,-1.6372,-1.6367,-1.6452,-1.6459,-1.6467,-1.6605,0,0,-1.649,-1.6493,0,0,0,0,0,0,0,0,-1.6234,-1.6248,-1.6348,-1.6347,-1.6345,-1.6401,-1.6406,-1.6505,-1.6382,-1.6367,-1.637,-1.6365,-1.6441,-1.6449,-1.6475,-1.6609,-1.6613,-1.6491,-1.6495,-1.6499,-1.6501,0,0,0,0,0,0,0,-1.6228,-1.6244,-1.6403,-1.6349,-1.6348,-1.6329,-1.6337,-1.6425,-1.6429,-1.6368,-1.6362,-1.6373,-1.644,-1.6468,-1.6476,-1.6614,-1.6491,-1.6497,-1.6502,-1.6505,-1.6867,-1.6871,0,0,0,0,0,0,-1.6224,-1.6239,-1.64,-1.6405,-1.6277,-1.6337,-1.6346,-1.6388,-1.6427,-1.6429,-1.6377,-1.6369,-1.6457,-1.6467,-1.6479,-1.6645,-1.6499,-1.6506,-1.651,-1.6862,-1.6868,-1.6873,0,0,0,0,0,0,-1.622,-1.624,-1.6397,-1.6321,-1.6339,-1.6346,-1.6394,-1.6392,-1.642,-1.6434,-1.6435,-1.6405,-1.6454,-1.6468,-1.6574,-1.6647,-1.6509,-1.6516,-1.6856,-1.6863,-1.687,-1.6978,0,0,0,0,0,0,-1.6214,-1.6238,-1.6291,-1.6322,-1.6344,-1.6492,-1.6398,-1.6397,-1.6433,-1.6424,-1.6461,-1.6462,-1.6451,-1.6564,-1.6582,-1.6655,-1.6522,-1.6849,-1.6859,-1.6868,-1.6968,-1.6988,-1.7005,0,0,0,0,0,-1.6206,-1.6318,-1.6294,-1.6314,-1.641,-1.6496,-1.6508,-1.6493,-1.6439,-1.6493,-1.6502,-1.6461,-1.6635,-1.6575,-1.6595,-1.6672,-1.6845,-1.6856,-1.6867,-1.696,-1.6984,-1.7005,0,0,0,0,0,0,-1.6296,-1.6322,-1.6296,-1.6421,-1.6457,-1.6483,-1.655,-1.6519,-1.6571,-1.6561,-1.6539,-1.6548,-1.6661,-1.6676,-1.6609,-1.6808,-1.6731,-1.6747,-1.6794,-1.6818,-1.6836,-1.6832,-1.6529,0,0,0,0,0,-1.633,-1.6398,-1.6417,-1.6526,-1.6545,-1.6545,-1.6581,-1.6566,-1.6602,-1.6617,-1.6634,-1.6671,-1.6734,-1.6776,-1.6835,-1.6968,-1.6976,-1.703,-1.7049,-1.7064,-1.708,-1.7153,-1.7178,-1.691,-1.691,-1.691,0,0,-1.6402,-1.6425,-1.6469,-1.6544,-1.657,-1.6641,-1.6558,-1.6636,-1.6689,-1.6629,-1.6732,-1.6745,-1.6784,-1.6905,-1.6959,-1.6922,-1.7155,-1.7079,-1.7091,-1.7098,-1.7167,-1.7192,-1.7215,-1.6918,-1.6916,-1.6915,0,0,-1.6571,-1.6593,-1.6687,-1.6715,-1.6755,-1.6754,-1.6776,-1.6807,-1.6814,-1.6915,-1.6872,-1.6933,-1.7042,-1.7072,-1.7102,-1.728,-1.7245,-1.7299,-1.7399,-1.747,-1.7491,-1.751,-1.7575,-1.7599,-1.7313,-1.7314,-1.7314,0,-1.6656,-1.6761,-1.674,-1.6822,-1.6857,-1.6804,-1.69,-1.6927,-1.6984,-1.701,-1.6966,-1.7101,-1.7124,-1.7252,-1.7295,-1.732,-1.7346,-1.7297,-1.749,-1.7508,-1.7525,-1.7588,-1.7612,-1.732,-1.7319,-1.7319,-1.7318,0,-1.6864,-1.6938,-1.7008,-1.7065,-1.7107,-1.7196,-1.7188,-1.7233,-1.7213,-1.7217,-1.7321,-1.7346,-1.7409,-1.7437,-1.7419,-1.7563,-1.7539,-1.7492,-1.7416,-1.7558,-1.7616,-1.764,-1.7329,-1.7327,-1.7325,-1.7323,0,0,-1.7095,-1.7137,-1.7164,-1.719,-1.7229,-1.7285,-1.737,-1.7432,-1.7472,-1.7512,-1.7584,-1.7676,-1.7634,-1.7667,-1.7651,-1.7714,-1.7855,-1.766,-1.766,-1.7698,-1.8018,-1.8055,-1.8083,-1.7831,-1.7835,-1.7839,-1.8015,0,-1.7267,-1.7416,-1.7399,-1.7541,-1.761,-1.756,-1.7634,-1.7666,-1.7671,-1.7729,-1.7734,-1.7801,-1.7738,-1.7758,-1.7817,-1.7826,-1.792,-1.7812,-1.7899,-1.7903,-1.7895,-1.8113,-1.8153,-1.8319,-1.8038,-1.8042,-1.8044,0,-1.7488,-1.7537,-1.7686,-1.7715,-1.7743,-1.7811,-1.7866,-1.7921,-1.7956,-1.7955,-1.7992,-1.7965,-1.8051,-1.7969,-1.8088,-1.8015,-1.8049,-1.8058,-1.8064,-1.8075,-1.7985,-1.8133,-1.8371,-1.8397,-1.808,-1.8077,-1.8074,0,-1.7645,-1.7747,-1.785,-1.7873,-1.7909,-1.7957,-1.7974,-1.8005,-1.8043,-1.809,-1.8115,-1.8171,-1.8203,-1.8248,-1.8236,-1.8178,-1.8358,-1.8275,-1.8361,-1.8362,-1.8405,-1.8403,-1.8656,-1.8421,-1.8421,-1.842,-1.842,0,-1.7841,-1.7935,-1.7921,-1.7986,-1.8089,-1.8067,-1.8171,-1.8181,-1.8209,-1.8274,-1.8232,-1.8294,-1.8274,-1.8335,-1.8326,-1.8426,-1.844,-1.8443,-1.844,-1.8449,-1.8449,-1.8474,-1.8463,-1.8427,-1.8425,-1.8424,-1.8423,0,-1.8036,-1.803,-1.814,-1.8164,-1.8172,-1.8248,-1.8268,-1.8328,-1.8328,-1.8411,-1.8429,-1.843,-1.8499,-1.8491,-1.8569,-1.8562,-1.8688,-1.867,-1.8677,-1.8675,-1.8762,-1.8755,-1.9042,-1.908,-1.8818,-1.882,-1.8822,0,-1.8164,-1.8235,-1.8266,-1.8307,-1.8328,-1.8393,-1.8432,-1.8412,-1.8454,-1.8498,-1.8553,-1.8619,-1.867,-1.8783,-1.8791,-1.885,-1.8835,-1.8931,-1.8843,-1.885,-1.884,-1.8837,-1.8845,-1.895,-1.8952,-1.8955,-1.8957,0,-1.8392,-1.8385,-1.8442,-1.8498,-1.8545,-1.8589,-1.8628,-1.8663,-1.8647,-1.8695,-1.8766,-1.8806,-1.8884,-1.8951,-1.9006,-1.9023,-1.8989,-1.8983,-1.9007,-1.9019,-1.9022,-1.9024,-1.8728,-1.8978,-1.8976,-1.8974,-1.8973,-1.8972,-1.8559,-1.862,-1.8652,-1.8717,-1.8744,-1.8782,-1.884,-1.8846,-1.8905,-1.8968,-1.8951,-1.9031,-1.9063,-1.9134,-1.9157,-1.9219,-1.9184,-1.9218,-1.9227,-1.9236,-1.9248,-1.9008,-1.9228,-1.9228,-1.9227,-1.9227,-1.9226,0,-1.8787,-1.8805,-1.8865,-1.8921,-1.8972,-1.8932,-1.8973,-1.9019,-1.909,-1.9123,-1.9174,-1.9255,-1.9318,-1.933,-1.939,-1.9438,-1.9424,-1.9455,-1.9453,-1.9458,-1.9274,-1.925,-1.9465,-1.9465,-1.9465,-1.9465,-1.9465,-1.9465,-1.8913,-1.9015,-1.9012,-1.9128,-1.9144,-1.9222,-1.9249,-1.9283,-1.931,-1.9402,-1.9454,-1.9461,-1.9485,-1.9547,-1.9603,-1.9605,-1.963,-1.9669,-1.9665,-1.9494,-1.9471,-1.9448,-1.9425,-1.9674,-1.9674,-1.9843,-1.9845,-1.9846]},{"header":{"parameterUnit":"m.s-1","parameterCategory":1,"la1":30.2991,"la2":30.254,"lo1":-89.0895,"lo2":-89.0444,"dy":0.0017,"dx":0.0017,"nx":28,"ny":28,"refTime":"2023-10-08T03:00:00:Z","depth":0,"parameterNumber":3,"parameterNumberName":"V-component_of_WINDS"},"data":[0,0,0,0,0,0,0,0,0,0,0,0,0,0,0,0,0,0,0,0,0,0,0,0,0,0,0,0,0,0,0,0,0,0,0,0,0,0,0,0,0,0,0,0,0,0,0,0,0,0,0,0,0,0,0,0,0,0,-6.2928,-6.293,0,-6.3062,-6.3063,-6.3065,-6.2971,-6.2967,-6.2962,-6.2959,-6.3088,-6.3096,-6.3103,0,0,0,0,0,0,0,0,0,0,0,0,0,-6.2584,-6.2591,-6.2928,-6.293,-6.2932,-6.3062,-6.3063,-6.3065,-6.2972,-6.2966,-6.2961,-6.2957,-6.3086,-6.3095,-6.3103,0,0,0,0,0,0,0,0,0,0,0,0,0,-6.2727,-6.2594,-6.2928,-6.2901,-6.29,-6.3061,-6.3064,-6.3066,-6.2973,-6.2966,-6.296,-6.2954,-6.3083,-6.3094,-6.3105,-6.3298,0,0,-6.3138,-6.3143,0,0,0,0,0,0,0,0,-6.2719,-6.274,-6.2903,-6.2903,-6.2902,-6.2993,-6.299,-6.3144,-6.2974,-6.2945,-6.2958,-6.2951,-6.3061,-6.3074,-6.3112,-6.3304,-6.331,-6.3139,-6.3146,-6.3151,-6.3154,0,0,0,0,0,0,0,-6.271,-6.2734,-6.2981,-6.2905,-6.2905,-6.2879,-6.2893,-6.3018,-6.3036,-6.2947,-6.294,-6.2958,-6.306,-6.3102,-6.3115,-6.3312,-6.3139,-6.3149,-6.3156,-6.316,-6.3668,-6.3674,0,0,0,0,0,0,-6.2703,-6.2726,-6.2977,-6.2985,-6.2794,-6.2891,-6.2906,-6.297,-6.3035,-6.3039,-6.2963,-6.2953,-6.3086,-6.3102,-6.3119,-6.3349,-6.3151,-6.3161,-6.3167,-6.3661,-6.3669,-6.3677,0,0,0,0,0,0,-6.2696,-6.2726,-6.2971,-6.2854,-6.2883,-6.2903,-6.2977,-6.2976,-6.3018,-6.3047,-6.3049,-6.3003,-6.3082,-6.3103,-6.3255,-6.3353,-6.3166,-6.3176,-6.3653,-6.3664,-6.3673,-6.3813,0,0,0,0,0,0,-6.2687,-6.2725,-6.28,-6.2856,-6.289,-6.3108,-6.2983,-6.2983,-6.3039,-6.3027,-6.3086,-6.3089,-6.3079,-6.3239,-6.3266,-6.3364,-6.3185,-6.3644,-6.3658,-6.367,-6.3799,-6.3826,-6.385,0,0,0,0,0,-6.2675,-6.2833,-6.2805,-6.2835,-6.2985,-6.3113,-6.3132,-6.3119,-6.3047,-6.3122,-6.314,-6.3087,-6.3338,-6.3255,-6.3285,-6.3388,-6.3638,-6.3654,-6.3669,-6.3788,-6.3821,-6.3849,0,0,0,0,0,0,-6.2785,-6.284,-6.2809,-6.2991,-6.3048,-6.3097,-6.3192,-6.3154,-6.3232,-6.3217,-6.3195,-6.3209,-6.3368,-6.3392,-6.33,-6.3578,-6.3476,-6.3498,-6.3556,-6.3588,-6.3613,-6.3603,-6.3194,0,0,0,0,0,-6.2831,-6.2933,-6.2974,-6.313,-6.3161,-6.3172,-6.3227,-6.3212,-6.327,-6.3293,-6.3322,-6.3379,-6.3469,-6.353,-6.3615,-6.3802,-6.3813,-6.3888,-6.3913,-6.3933,-6.3953,-6.4052,-6.4086,-6.3728,-6.3727,-6.3727,0,0,-6.2926,-6.2969,-6.3034,-6.3154,-6.3197,-6.33,-6.3193,-6.3307,-6.3383,-6.3309,-6.3455,-6.3478,-6.3539,-6.3709,-6.3785,-6.3735,-6.4054,-6.3953,-6.3969,-6.3977,-6.4071,-6.4105,-6.4135,-6.3738,-6.3736,-6.3734,0,0,-6.3153,-6.3196,-6.3331,-6.3376,-6.3443,-6.3449,-6.3482,-6.3537,-6.355,-6.3696,-6.3643,-6.3731,-6.3889,-6.3935,-6.3979,-6.4222,-6.4176,-6.425,-6.4381,-6.4478,-6.4507,-6.4531,-6.4618,-6.4649,-6.4269,-6.4269,-6.427,0,-6.3262,-6.3419,-6.3404,-6.3523,-6.3576,-6.3516,-6.3651,-6.3695,-6.3786,-6.3823,-6.3765,-6.3962,-6.3999,-6.4178,-6.4238,-6.4275,-6.431,-6.4243,-6.4504,-6.4529,-6.4552,-6.4634,-6.4666,-6.4278,-6.4277,-6.4276,-6.4275,0,-6.3549,-6.3659,-6.3759,-6.3851,-6.3915,-6.4041,-6.4043,-6.4109,-6.4088,-6.41,-6.4248,-6.429,-6.4383,-6.4424,-6.4403,-6.46,-6.4567,-6.4508,-6.4404,-6.4595,-6.4671,-6.4703,-6.429,-6.4287,-6.4285,-6.4282,0,0,-6.385,-6.3932,-6.3969,-6.401,-6.4079,-6.4162,-6.4284,-6.4377,-6.4434,-6.4498,-6.4599,-6.4734,-6.468,-6.4729,-6.4713,-6.4799,-6.4988,-6.4728,-6.4729,-6.4775,-6.5206,-6.525,-6.5287,-6.4958,-6.4964,-6.4968,-6.5201,0,-6.408,-6.4297,-6.4286,-6.4488,-6.4587,-6.4531,-6.4637,-6.469,-6.4704,-6.4788,-6.4801,-6.4898,-6.4819,-6.4849,-6.4931,-6.4948,-6.5074,-6.4931,-6.5049,-6.5054,-6.5036,-6.5327,-6.5374,-6.5592,-6.523,-6.5235,-6.5239,0,-6.4378,-6.4455,-6.4667,-6.4722,-6.4763,-6.4859,-6.4943,-6.5025,-6.5083,-6.5086,-6.5142,-6.5112,-6.5233,-6.5127,-6.5292,-6.5195,-6.5243,-6.5258,-6.5266,-6.5277,-6.5158,-6.5345,-6.5661,-6.5694,-6.5286,-6.5282,-6.5279,0,-6.4576,-6.4732,-6.4879,-6.4915,-6.4982,-6.5051,-6.5081,-6.5133,-6.519,-6.5262,-6.5298,-6.5382,-6.5428,-6.5493,-6.5486,-6.5409,-6.5654,-6.5547,-6.5658,-6.5659,-6.5713,-6.5709,-6.604,-6.5744,-6.5743,-6.5743,-6.5742,0,-6.4834,-6.4966,-6.4969,-6.5059,-6.5205,-6.519,-6.5333,-6.5356,-6.5402,-6.5494,-6.545,-6.5536,-6.5521,-6.5607,-6.5602,-6.5739,-6.576,-6.5765,-6.5762,-6.5769,-6.5769,-6.58,-6.5785,-6.5751,-6.5749,-6.5748,-6.5746,0,-6.5079,-6.5087,-6.5244,-6.5295,-6.531,-6.5415,-6.5457,-6.5542,-6.5551,-6.5668,-6.5694,-6.5709,-6.5808,-6.5807,-6.5919,-6.5915,-6.6083,-6.6063,-6.6065,-6.6061,-6.6172,-6.6162,-6.6535,-6.6583,-6.6255,-6.6258,-6.6261,0,-6.5244,-6.5344,-6.5407,-6.5466,-6.5502,-6.5598,-6.5656,-6.5644,-6.5706,-6.5779,-6.5854,-6.5949,-6.6025,-6.6185,-6.6204,-6.6289,-6.627,-6.6395,-6.6282,-6.6286,-6.6271,-6.6266,-6.6275,-6.6417,-6.6421,-6.6424,-6.6426,0,-6.5535,-6.5533,-6.562,-6.5708,-6.5778,-6.5846,-6.5909,-6.5959,-6.5954,-6.6025,-6.6127,-6.6186,-6.6301,-6.6396,-6.6478,-6.6505,-6.6465,-6.6461,-6.6491,-6.65,-6.6497,-6.65,-6.6125,-6.6453,-6.645,-6.6448,-6.6447,-6.6446,-6.5744,-6.5831,-6.5889,-6.5986,-6.6032,-6.6091,-6.6174,-6.6194,-6.628,-6.6374,-6.6361,-6.6475,-6.6527,-6.6634,-6.667,-6.6756,-6.6712,-6.6756,-6.6767,-6.6778,-6.679,-6.6484,-6.6771,-6.677,-6.6769,-6.6769,-6.6768,0,-6.6033,-6.6067,-6.6157,-6.6247,-6.6323,-6.628,-6.6347,-6.6412,-6.6514,-6.6568,-6.6644,-6.676,-6.6851,-6.6878,-6.6965,-6.7029,-6.7013,-6.7053,-6.7048,-6.7055,-6.6825,-6.679,-6.7065,-6.7065,-6.7065,-6.7065,-6.7064,-6.7064,-6.6192,-6.6336,-6.6342,-6.6507,-6.654,-6.6653,-6.6694,-6.6748,-6.6791,-6.6924,-6.7001,-6.7018,-6.706,-6.715,-6.7231,-6.7236,-6.727,-6.7318,-6.7316,-6.7101,-6.7071,-6.7043,-6.701,-6.7326,-6.7326,-6.7538,-6.754,-6.7541]}]]